Weather History for Glendive, MT

Change the Weather History Date:

Tuesday, November 6, 2012

  Actual Average Record
Temperature  
Mean Temperature 42 °F -  
Max Temperature 53 °F 42 °F 71 °F (2010)
Min Temperature 30 °F 21 °F 3 °F (2003)
Degree Days  
Heating Degree Days 24    
Moisture  
Dew Point 26 °F    
Average Humidity 56    
Maximum Humidity 80    
Minimum Humidity 33    
Precipitation  
Precipitation 0.00 in - - ()
Sea Level Pressure  
Sea Level Pressure 30.11 in    
Wind  
Wind Speed 11 mph (NW)    
Max Wind Speed 16 mph    
Max Gust Speed 23 mph    
Visibility 10 miles    
Events      
Averages and records for this station are not official NWS values.
T = Trace of Precipitation, MM = Missing Value Source: NWS Daily Summary

Daily Weather History Graph

Daily Weather History Graph

Search for Another Location

Airport:

Trip Planner

Search our weather history database for the weather conditions in past years. The results will help you decide how hot, cold, wet, or windy it might be!

Date:

Astronomy

Nov. 06, 2012 Rise Set
Actual Time 6:50 AM MST 4:34 PM MST
Civil Twilight 6:18 AM MST 5:07 PM MST
Nautical Twilight 5:41 AM MST 5:43 PM MST
Astronomical Twilight 5:05 AM MST 6:19 PM MST
Moon 11:21 PM MST (11/6) 12:40 PM MST (11/6)
Length of Visible Light 10h 49m
Length of Day
9h 44m
Waning Gibbous, 52% of the Moon is Illuminated
Nov 6
Waning Gibbous
Nov 6
Last Quarter
Nov 13
New
Nov 20
First Quarter
Nov 28
Full

Hourly Weather History & Observations

Time (MST) Temp. Windchill Dew Point Humidity Pressure Visibility Wind Dir Wind Speed Gust Speed Precip Events Conditions
12:15 AM 41.0 °F 32.8 °F 30.2 °F 65% 30.12 in 10.0 mi West 16.1 mph 21.9 mph N/A   Overcast
12:35 AM 41.0 °F 33.9 °F 30.2 °F 65% 30.12 in 10.0 mi West 12.7 mph - N/A   Overcast
12:55 AM 41.0 °F 33.1 °F 30.2 °F 65% 30.12 in 10.0 mi West 15.0 mph - N/A   Overcast
1:15 AM 41.0 °F 33.9 °F 28.4 °F 61% 30.13 in 10.0 mi West 12.7 mph - N/A   Overcast
1:35 AM 41.0 °F 33.5 °F 28.4 °F 61% 30.13 in 10.0 mi West 13.8 mph - N/A   Overcast
1:55 AM 39.2 °F 31.6 °F 28.4 °F 65% 30.13 in 10.0 mi West 12.7 mph - N/A   Overcast
2:15 AM 39.2 °F 32.5 °F 28.4 °F 65% 30.13 in 10.0 mi West 10.4 mph - N/A   Scattered Clouds
2:35 AM 37.4 °F 29.8 °F 28.4 °F 70% 30.13 in 10.0 mi West 11.5 mph - N/A   Clear
2:55 AM 37.4 °F 28.9 °F 26.6 °F 65% 30.13 in 10.0 mi West 13.8 mph - N/A   Clear
3:15 AM 37.4 °F 29.8 °F 26.6 °F 65% 30.13 in 10.0 mi West 11.5 mph - N/A   Clear
3:35 AM 35.6 °F 28.0 °F 26.6 °F 70% 30.13 in 10.0 mi West 10.4 mph - N/A   Clear
3:55 AM 35.6 °F 27.1 °F 26.6 °F 70% 30.14 in 10.0 mi West 12.7 mph - N/A   Clear
4:35 AM 33.8 °F 30.8 °F 24.8 °F 70% 30.15 in 10.0 mi NW 3.5 mph - N/A   Clear
4:55 AM 33.8 °F 27.0 °F 24.8 °F 70% 30.15 in 10.0 mi WNW 8.1 mph - N/A   Clear
5:15 AM 32.0 °F 25.6 °F 24.8 °F 75% 30.16 in 10.0 mi NNW 6.9 mph - N/A   Clear
5:35 AM 32.0 °F 24.2 °F 24.8 °F 75% 30.16 in 10.0 mi NW 9.2 mph - N/A   Clear
5:55 AM 33.8 °F 25.8 °F 24.8 °F 70% 30.16 in 10.0 mi NW 10.4 mph - N/A   Clear
6:15 AM 33.8 °F 25.8 °F 24.8 °F 70% 30.17 in 10.0 mi NW 10.4 mph - N/A   Clear
6:35 AM 32.0 °F 23.6 °F 24.8 °F 75% 30.17 in 10.0 mi WNW 10.4 mph - N/A   Clear
6:55 AM 30.2 °F 21.3 °F 24.8 °F 80% 30.17 in 10.0 mi West 10.4 mph - N/A   Clear
7:35 AM 33.8 °F 27.0 °F 24.8 °F 70% 30.19 in 10.0 mi NW 8.1 mph - N/A   Clear
7:55 AM 35.6 °F 28.0 °F 26.6 °F 70% 30.19 in 10.0 mi NW 10.4 mph - N/A   Clear
8:15 AM 39.2 °F 31.6 °F 28.4 °F 65% 30.19 in 10.0 mi WNW 12.7 mph - N/A   Clear
8:35 AM 41.0 °F 33.5 °F 28.4 °F 61% 30.19 in 10.0 mi WNW 13.8 mph - N/A   Clear
8:55 AM 42.8 °F 36.2 °F 28.4 °F 57% 30.19 in 10.0 mi WNW 12.7 mph - N/A   Clear
9:15 AM 44.6 °F 38.4 °F 26.6 °F 49% 30.19 in 10.0 mi WNW 12.7 mph - N/A   Clear
9:35 AM 46.4 °F 41.1 °F 26.6 °F 46% 30.19 in 10.0 mi NW 11.5 mph - N/A   Clear
9:55 AM 46.4 °F 41.1 °F 26.6 °F 46% 30.18 in 10.0 mi WNW 11.5 mph - N/A   Clear
10:15 AM 46.4 °F 40.4 °F 24.8 °F 43% 30.19 in 10.0 mi NW 13.8 mph - N/A   Clear
10:35 AM 48.2 °F - 24.8 °F 40% 30.18 in 10.0 mi NW 11.5 mph 17.3 mph N/A   Clear
10:55 AM 48.2 °F - 24.8 °F 40% 30.17 in 10.0 mi WNW 10.4 mph 16.1 mph N/A   Clear
11:15 AM 50.0 °F - 24.8 °F 37% 30.16 in 10.0 mi NW 10.4 mph - N/A   Clear
11:35 AM 50.0 °F - 24.8 °F 37% 30.16 in 10.0 mi WNW 15.0 mph 19.6 mph N/A   Clear
11:55 AM 50.0 °F - 24.8 °F 37% 30.16 in 10.0 mi NW 13.8 mph - N/A   Clear
12:15 PM 51.8 °F - 26.6 °F 38% 30.16 in 10.0 mi NW 15.0 mph 18.4 mph N/A   Clear
12:35 PM 51.8 °F - 24.8 °F 35% 30.15 in 10.0 mi WNW 13.8 mph 23.0 mph N/A   Partly Cloudy
12:55 PM 51.8 °F - 24.8 °F 35% 30.14 in 10.0 mi NW 12.7 mph - N/A   Mostly Cloudy
1:15 PM 51.8 °F - 24.8 °F 35% 30.12 in 10.0 mi WNW 10.4 mph - N/A   Overcast
1:35 PM 53.6 °F - 24.8 °F 33% 30.13 in 10.0 mi WNW 15.0 mph - N/A   Mostly Cloudy
1:55 PM 51.8 °F - 24.8 °F 35% 30.13 in 10.0 mi NW 12.7 mph - N/A   Partly Cloudy
2:15 PM 53.6 °F - 24.8 °F 33% 30.12 in 10.0 mi NW 9.2 mph - N/A   Clear
2:35 PM 51.8 °F - 24.8 °F 35% 30.10 in 10.0 mi NW 5.8 mph - N/A   Partly Cloudy
3:15 PM 53.6 °F - 24.8 °F 33% 30.12 in 10.0 mi WNW 8.1 mph - N/A   Mostly Cloudy
3:35 PM 51.8 °F - 24.8 °F 35% 30.11 in 10.0 mi WNW 5.8 mph - N/A   Mostly Cloudy
3:55 PM 51.8 °F - 24.8 °F 35% 30.11 in 10.0 mi West 5.8 mph - N/A   Partly Cloudy
4:15 PM 48.2 °F - 23.0 °F 37% 30.10 in 10.0 mi WNW 3.5 mph - N/A   Clear
4:35 PM 46.4 °F - 23.0 °F 40% 30.09 in 10.0 mi Calm Calm - N/A   Clear
4:55 PM 46.4 °F 43.5 °F 24.8 °F 43% 30.09 in 10.0 mi NW 5.8 mph - N/A   Clear
5:15 PM 41.0 °F 38.0 °F 21.2 °F 45% 30.09 in 10.0 mi NW 4.6 mph - N/A   Clear
5:35 PM 39.2 °F 37.0 °F 21.2 °F 49% 30.08 in 10.0 mi NW 3.5 mph - N/A   Partly Cloudy
5:55 PM 37.4 °F - 23.0 °F 56% 30.07 in 10.0 mi Calm Calm - N/A   Scattered Clouds
6:15 PM 37.4 °F 34.9 °F 26.6 °F 65% 30.08 in 10.0 mi SE 3.5 mph - N/A   Overcast
6:35 PM 39.2 °F 37.0 °F 24.8 °F 56% 30.07 in 10.0 mi SSE 3.5 mph - N/A   Mostly Cloudy
6:55 PM 39.2 °F 35.9 °F 24.8 °F 56% 30.07 in 10.0 mi East 4.6 mph - N/A   Scattered Clouds
7:16 PM 41.0 °F 39.0 °F 24.8 °F 53% 30.06 in 10.0 mi ENE 3.5 mph - N/A   Partly Cloudy
7:35 PM 39.2 °F 35.0 °F 24.8 °F 56% 30.05 in 10.0 mi East 5.8 mph - N/A   Clear
7:55 PM 39.2 °F 35.0 °F 26.6 °F 61% 30.05 in 10.0 mi East 5.8 mph - N/A   Clear
8:15 PM 37.4 °F 31.4 °F 24.8 °F 60% 30.04 in 10.0 mi ENE 8.1 mph - N/A   Clear
8:35 PM 37.4 °F 30.8 °F 24.8 °F 60% 30.03 in 10.0 mi ENE 9.2 mph - N/A   Clear
8:55 PM 35.6 °F 29.2 °F 24.8 °F 65% 30.03 in 10.0 mi ENE 8.1 mph - N/A   Clear
9:15 PM 35.6 °F 29.2 °F 24.8 °F 65% 30.03 in 10.0 mi East 8.1 mph - N/A   Clear
9:35 PM 35.6 °F 29.2 °F 24.8 °F 65% 30.02 in 10.0 mi East 8.1 mph - N/A   Clear
9:55 PM 35.6 °F 29.9 °F 24.8 °F 65% 30.02 in 10.0 mi East 6.9 mph - N/A   Clear
10:15 PM 35.6 °F 29.9 °F 24.8 °F 65% 30.01 in 10.0 mi East 6.9 mph - N/A   Clear
10:35 PM 33.8 °F 29.6 °F 26.6 °F 75% 30.00 in 10.0 mi East 4.6 mph - N/A   Clear
10:55 PM 33.8 °F 29.6 °F 24.8 °F 70% 30.00 in 10.0 mi NE 4.6 mph - N/A   Clear
11:35 PM 33.8 °F 29.6 °F 24.8 °F 70% 29.98 in 10.0 mi East 4.6 mph - N/A   Mostly Cloudy
11:55 PM 33.8 °F 28.6 °F 24.8 °F 70% 29.97 in 10.0 mi ENE 5.8 mph - N/A   Scattered Clouds